Weather History for McCook, NE

Change the Weather History Date:

Monday, December 31, 2012

  Actual Average Record
Temperature  
Mean Temperature 19 °F 27 °F  
Max Temperature 24 °F 40 °F 65 °F (1980)
Min Temperature 13 °F 14 °F -18 °F (1911)
Degree Days  
Heating Degree Days 46    
Moisture  
Dew Point 18 °F    
Average Humidity 87    
Maximum Humidity 93    
Minimum Humidity 80    
Precipitation  
Precipitation 0.01 in 0.02 in 0.10 in (1973)
Month to date precipitation 1.23 0.64  
Year to date precipitation 9.36 22.53  
Sea Level Pressure  
Sea Level Pressure 30.16 in    
Wind  
Wind Speed 6 mph (NNE)    
Max Wind Speed 12 mph    
Max Gust Speed -    
Visibility 4 miles    
Events Fog , Snow    
T = Trace of Precipitation, MM = Missing Value Source: NWS Daily Summary

Daily Weather History Graph

Daily Weather History Graph

Search for Another Location

Airport:

Trip Planner

Search our weather history database for the weather conditions in past years. The results will help you decide how hot, cold, wet, or windy it might be!

Date:

Astronomy

Dec. 31, 2012 Rise Set
Actual Time 8:04 AM CST 5:26 PM CST
Civil Twilight 7:34 AM CST 5:57 PM CST
Nautical Twilight 7:00 AM CST 6:31 PM CST
Astronomical Twilight 6:27 AM CST 7:04 PM CST
Moon 8:59 PM CST (12/31) 9:47 AM CST (12/31)
Length of Visible Light 10h 23m
Length of Day
9h 21m
Waning Gibbous, 90% of the Moon is Illuminated
Dec 31
Waning Gibbous
Jan 4
Last Quarter
Jan 11
New
Jan 18
First Quarter
Jan 26
Full

Hourly Weather History & Observations

Time (CST) Temp. Windchill Dew Point Humidity Pressure Visibility Wind Dir Wind Speed Gust Speed Precip Events Conditions
12:53 AM 14.0 °F 2.9 °F 10.0 °F 84% 30.23 in 10.0 mi NW 8.1 mph - N/A   Clear
1:53 AM 14.0 °F 5.1 °F 9.0 °F 80% 30.19 in 10.0 mi NNW 5.8 mph - N/A   Clear
2:53 AM 15.1 °F 5.2 °F 10.9 °F 84% 30.20 in 10.0 mi NW 6.9 mph - N/A   Clear
3:53 AM 15.1 °F 7.7 °F 10.9 °F 84% 30.19 in 10.0 mi WNW 4.6 mph - N/A   Clear
4:53 AM 16.0 °F 8.8 °F 12.0 °F 84% 30.18 in 10.0 mi NW 4.6 mph - N/A   Mostly Cloudy
5:30 AM 17.6 °F 12.3 °F 14.0 °F 86% 30.08 in 10.0 mi NNW 3.5 mph - N/A   Overcast
5:53 AM 18.0 °F 12.7 °F 14.0 °F 84% 30.17 in 10.0 mi North 3.5 mph - N/A   Overcast
6:53 AM 19.9 °F 13.4 °F 17.1 °F 89% 30.17 in 10.0 mi North 4.6 mph - N/A   Overcast
7:53 AM 21.9 °F 11.0 °F 19.0 °F 89% 30.16 in 10.0 mi NNE 10.4 mph - N/A   Overcast
8:24 AM 21.2 °F 11.7 °F 19.4 °F 93% 30.07 in 10.0 mi NNE 8.1 mph - N/A   Overcast
8:53 AM 21.9 °F 13.4 °F 19.0 °F 89% 30.17 in 10.0 mi NE 6.9 mph - N/A   Overcast
9:53 AM 23.0 °F 13.9 °F 19.0 °F 85% 30.21 in 10.0 mi ENE 8.1 mph - N/A   Overcast
10:53 AM 23.0 °F 13.9 °F 19.9 °F 88% 30.23 in 8.0 mi ENE 8.1 mph - N/A   Overcast
11:53 AM 23.0 °F 13.1 °F 19.9 °F 88% 30.21 in 9.0 mi NE 9.2 mph - N/A   Overcast
12:13 PM 24.8 °F 15.3 °F 19.4 °F 80% 30.09 in 2.5 mi NE 9.2 mph - 0.00 in Snow Light Snow
12:28 PM 24.8 °F 15.3 °F 19.4 °F 80% 30.09 in 3.0 mi NE 9.2 mph - 0.00 in Snow Light Snow
12:44 PM 24.8 °F 15.3 °F 19.4 °F 80% 30.08 in 2.0 mi NE 9.2 mph - 0.00 in Snow Light Snow
12:53 PM 24.1 °F 14.4 °F 19.9 °F 84% 30.19 in 1.5 mi NE 9.2 mph - 0.00 in Snow Light Snow
1:21 PM 24.8 °F 14.6 °F 19.4 °F 80% 30.07 in 1.0 mi NNE 10.4 mph - 0.00 in Snow Light Snow
1:53 PM 24.1 °F 13.7 °F 19.9 °F 84% 30.18 in 1.0 mi NE 10.4 mph - 0.00 in Snow Light Snow
2:18 PM 24.8 °F 14.6 °F 21.2 °F 86% 30.06 in 0.8 mi NE 10.4 mph - 0.00 in Snow Light Snow
2:25 PM 24.8 °F 14.0 °F 19.4 °F 80% 30.06 in 0.8 mi NE 11.5 mph - 0.00 in Snow Light Snow
2:50 PM 23.0 °F 12.4 °F 19.4 °F 86% 30.06 in 0.5 mi NE 10.4 mph - 0.00 in Fog , Snow Snow
2:53 PM 24.1 °F 14.4 °F 19.9 °F 84% 30.17 in 0.5 mi NE 9.2 mph - 0.00 in Fog , Snow Snow
3:21 PM 23.0 °F 13.1 °F 19.4 °F 86% 30.07 in 0.5 mi NE 9.2 mph - 0.00 in Fog , Snow Light Snow
3:32 PM 24.8 °F 15.3 °F 19.4 °F 80% 30.07 in 0.5 mi NE 9.2 mph - 0.00 in Fog , Snow Snow
3:53 PM 23.0 °F 12.4 °F 19.9 °F 88% 30.19 in 0.8 mi NNE 10.4 mph - 0.00 in Snow Light Snow
4:30 PM 23.0 °F 13.1 °F 19.4 °F 86% 30.09 in 1.0 mi NNE 9.2 mph - 0.00 in Snow Light Snow
4:53 PM 21.9 °F 11.7 °F 19.0 °F 89% 30.21 in 1.0 mi NNE 9.2 mph - 0.00 in Snow Light Snow
5:53 PM 21.9 °F 13.4 °F 19.0 °F 89% 30.22 in 1.2 mi NE 6.9 mph - 0.00 in Snow Light Snow
6:34 PM 21.2 °F 12.6 °F 17.6 °F 86% 30.11 in 2.0 mi NE 6.9 mph - 0.00 in Snow Light Snow
6:51 PM 21.2 °F 12.6 °F 17.6 °F 86% 30.12 in 3.0 mi NE 6.9 mph - 0.00 in Snow Light Snow
6:53 PM 21.0 °F 11.4 °F 18.0 °F 88% 30.22 in 3.0 mi NE 8.1 mph - 0.00 in Snow Light Snow
7:53 PM 19.9 °F 13.4 °F 17.1 °F 89% 30.23 in 4.0 mi NE 4.6 mph - 0.00 in Snow Light Snow
8:39 PM 19.4 °F - 17.6 °F 93% 30.13 in 2.5 mi Calm Calm - 0.00 in Snow Light Snow
8:50 PM 19.4 °F - 17.6 °F 93% 30.13 in 3.0 mi Calm Calm - 0.00 in Snow Light Snow
8:53 PM 19.9 °F - 17.1 °F 89% 30.25 in 3.0 mi Calm Calm - 0.00 in   Overcast
9:39 PM 19.4 °F - 17.6 °F 93% 30.15 in 2.0 mi Calm Calm - 0.00 in Snow Light Snow
9:53 PM 19.0 °F - 16.0 °F 88% 30.26 in 2.5 mi Calm Calm - 0.00 in Snow Light Snow
10:02 PM 19.4 °F - 17.6 °F 93% 30.15 in 3.0 mi Calm Calm - 0.00 in Snow Light Snow
10:10 PM 19.4 °F - 17.6 °F 93% 30.16 in 2.5 mi Calm Calm - 0.00 in Snow Light Snow
10:20 PM 19.4 °F - 17.6 °F 93% 30.16 in 3.0 mi Calm Calm - 0.00 in   Overcast
10:43 PM 19.4 °F - 17.6 °F 93% 30.17 in 2.0 mi Calm Calm - 0.01 in Snow Light Snow
10:53 PM 19.0 °F - 17.1 °F 92% 30.28 in 1.8 mi Calm Calm - 0.01 in Snow Light Snow
11:09 PM 19.4 °F - 17.6 °F 93% 30.17 in 2.0 mi Calm Calm - 0.00 in Snow Light Snow
11:53 PM 19.0 °F - 17.1 °F 92% 30.29 in 2.0 mi Calm Calm - 0.00 in Snow Light Snow